Location: Chateh
(58.6667°N, 118.6000°W)
Time: 07:21:13
(UTC+00:00)

COSMOS 2251 DEB - Visible Passes

Search period start: 21 May 2024 00:00
Search period end: 31 May 2024 00:00
Orbit: 751 x 1606 km, 74.0° (Epoch: 13 May)

Date Brightness Start Highest point End Pass type
(mag) Time Alt. Az. Time Alt. Az. Time Alt. Az.
21 May ? 06:49:34 12° SSE 06:56:11 44° E 07:04:32 10° NNE visible
21 May ? 08:39:06 10° SW 08:46:58 73° NW 08:56:18 10° NNE visible
22 May ? 06:26:13 11° SSE 06:33:03 38° E 06:41:09 10° NE visible
22 May ? 08:15:39 10° SW 08:23:33 81° NW 08:32:56 10° NNE visible
23 May ? 06:03:07 10° SSE 06:09:55 34° E 06:17:42 10° NE visible
23 May ? 07:52:14 10° SSW 08:00:09 89° WNW 08:09:34 10° NNE visible
23 May ? 09:44:40 10° WSW 09:52:33 43° NNW 10:01:30 10° NE visible
24 May ? 05:40:15 10° SSE 05:46:49 30° E 05:54:15 10° NE visible
24 May ? 07:28:52 10° SSW 07:36:48 83° ESE 07:46:11 10° NNE visible
24 May ? 09:20:59 10° WSW 09:28:57 47° NW 09:38:03 10° NE visible
25 May ? 07:05:31 10° SSW 07:13:27 75° ESE 07:22:48 10° NNE visible
25 May ? 08:57:18 10° WSW 09:05:23 50° NW 09:14:36 10° NE visible
26 May ? 06:42:14 10° S 06:50:09 67° ESE 06:59:24 10° NNE visible
26 May ? 08:33:39 10° WSW 08:41:49 55° NW 08:51:09 10° NE visible
27 May ? 06:18:59 10° S 06:26:51 60° ESE 06:35:59 10° NNE visible
27 May ? 08:10:01 10° SW 08:18:16 60° NW 08:27:43 10° NE visible
28 May ? 05:55:48 10° S 06:03:35 53° ESE 06:12:34 10° NNE visible
28 May ? 07:46:26 10° SW 07:54:44 66° NW 08:04:16 10° NNE visible
28 May ? 09:39:49 10° W 09:47:51 36° NNW 09:56:36 10° NE visible
29 May ? 07:22:52 10° SW 07:31:14 72° NW 07:40:50 10° NNE visible
29 May ? 09:16:02 10° W 09:24:09 38° NNW 09:33:00 10° NE visible
30 May ? 06:59:20 10° SW 07:07:45 79° NW 07:17:24 10° NNE visible
30 May ? 08:52:14 10° W 09:00:28 41° NNW 09:09:27 10° NE visible
